Location: Moscow Lake
(40.1822°N, 90.1601°W)
Time: 18:49:31
(UTC+00:00)

Daily predictions for brighter satellites

Satellite Brightness Start Highest point End
(mag) Time Altitude Azimuth Time Altitude Azimuth Time Altitude Azimuth
Lacrosse 5 rocket 0.8 12:00:19 10° NW 12:03:35 78° NE 12:06:51 10° SE
Sich 1 Rocket 4.0 12:03:50 10° NNW 12:08:06 43° W 12:12:18 10° SSW
Cosmos 968 Rocket 4.4 12:03:52 10° NW 12:08:16 28° W 12:12:40 10° SSW
Hubble Space Telescope 3.3 12:07:26 10° SSW 12:08:59 12° S 12:10:30 10° SSE
Iridium 45 4.2 12:06:15 10° N 12:09:27 84° W 12:12:42 10° S
CENTAUR R/B 3.7 12:01:42 10° NW 12:10:03 51° WSW 12:19:03 10° S
ATLAS 3B R/B 3.9 12:04:08 10° W 12:10:30 28° NW 12:17:05 10° NNE
Helios 1A Rocket 3.7 12:08:16 10° SSW 12:10:54 21° W 12:13:32 10° NW
SMAP 3.7 12:06:28 10° NNE 12:11:06 61° ESE 12:15:40 10° S
DMSP B5D1-3 4.5 12:07:00 10° S 12:12:05 76° WSW 12:17:14 10° NNW
Cosmos 1484 Rocket 3.0 12:10:14 10° N 12:13:32 38° WNW 12:16:48 10° SW
CZ-2D R/B 4.0 12:10:52 10° NNE 12:13:56 45° E 12:16:58 10° S
COSMO-SKYMED 1 3.3 12:10:27 10° SSW 12:14:03 29° W 12:17:42 10° NW
NOSS 2-2 (C) 4.2 12:11:21 10° NW 12:15:36 54° WSW 12:21:33 10° SSE
Cosmos 2228 3.9 12:15:21 10° N 12:19:31 53° E 12:23:39 10° SSE
Cosmos 292 Rocket 3.8 12:15:36 10° NNW 12:20:20 62° WSW 12:25:00 10° S
SL-8 R/B 3.7 12:17:48 10° WSW 12:22:34 83° NNW 12:27:21 10° ENE
CZ-3 R/B 3.1 12:13:15 10° WSW 12:23:03 31° SSW 12:27:31 10° SE
Landsat 7 4.5 12:18:41 10° NNE 12:23:18 61° E 12:27:53 10° S
Gbstr 26 Del rocket 4.3 12:18:42 10° NW 12:24:06 59° NNE 12:30:43 10° ESE
IGS 5A 3.6 12:21:39 10° N 12:25:28 46° WNW 12:29:15 10° SSW
Cosmos 407 Rocket 3.5 23:03:33 10° S 23:08:42 71° ESE 23:13:49 10° NNE
SJ 16-02 2.6 23:06:17 10° SSE 23:09:30 21° E 23:12:43 10° NE
IGS 5A 3.3 23:06:01 10° SSE 23:09:59 83° ENE 23:13:58 10° N
CBERS-1 4.3 23:07:35 10° S 23:12:41 75° WSW 23:17:49 10° NNW
SMAP 3.1 23:08:51 10° SSE 23:13:24 57° ENE 23:17:58 10° N
YAOGAN 1 4.3 23:12:34 10° E 23:14:06 12° ENE 23:15:37 10° NE
Cosmos 44 Rocket 3.2 23:10:57 10° SSW 23:15:40 78° ESE 23:20:34 10° NE
OAO 2 Rocket 4.1 23:12:35 10° WSW 23:17:21 47° S 23:22:13 10° ESE
USA 215 3.5 23:11:15 10° ESE 23:17:30 51° NE 23:23:47 10° NW
BREEZE-M DEB (TANK) 2.5 23:16:01 10° WSW 23:18:12 63° NNW 23:22:48 10° NE
Cosmos 1833 Rocket 3.3 23:13:47 10° NNW 23:19:21 62° WSW 23:24:53 10° S
RESURS DK-1 2.6 23:18:01 10° NNW 23:21:52 43° ENE 23:25:40 10° SE
SAR-Lupe-3 4.0 23:19:55 10° NNE 23:22:28 46° E 23:25:00 10° S
SL-12 R/B(2) 4.4 23:15:13 10° SW 23:22:56 85° WNW 23:32:22 10° NE
Landsat 7 3.8 23:20:57 10° SSE 23:25:28 55° ENE 23:30:01 10° N
Cosmos 540 Rocket 3.6 23:20:53 10° N 23:25:53 51° ENE 23:30:51 10° SE
Cosmos 1400 Rocket 3.9 23:23:02 10° SE 23:26:03 22° E 23:29:02 10° NE
SPOT 1/Viking Rocket 4.4 23:22:09 10° ESE 23:26:24 27° ENE 23:30:41 10° N
SJ-12 3.8 23:25:16 10° SSE 23:28:57 55° ENE 23:32:41 10° N
Helios 1A Rocket 4.0 23:31:25 14° ENE 23:32:51 17° E 23:35:09 10° SE
Cosmos 1763 Rocket 3.4 23:30:01 10° NNW 23:35:13 76° ENE 23:40:19 10° SSE
Cosmos 304 Rocket 4.3 23:35:01 10° SSE 23:39:20 36° ESE 23:43:41 10° NE
Cosmos 371 Rocket 3.8 23:37:21 10° S 23:41:46 37° ESE 23:46:07 10° NE
Cosmos 1536 Rocket 4.2 23:38:28 10° NNE 23:42:27 32° ENE 23:46:25 10° SE
Okean 2 Rocket 3.6 23:39:54 10° SSE 23:43:53 35° E 23:47:53 10° NNE
Timation 1 Rocket 4.3 23:47:55 10° NNW 23:53:55 88° ENE 23:59:53 10° SSE
SL-16 R/B 4.4 23:49:29 10° N 23:54:44 29° WNW 23:59:58 10° WSW
COSMO-SKYMED 1 2.9 23:52:15 13° NNE 23:55:36 37° E 23:59:25 10° SSE
Cosmos 1602 2.9 23:53:13 10° N 23:56:15 69° E 23:59:17 10° SSE
